KAZSAT-3

Last updated on Wed Oct 22 2025 00:02:48 GMT+0000 (Coordinated Universal Time)

1 39728U 14023B 25294.56223339 .00000067 00000+0 00000+0 0 9995 2 39728 0.0267 344.1439 0000146 312.8091 354.2231 1.00272105 40067
UTC large
Height (km)
Speed (km/s)
/
Latitude / Longitude
Inclination (degrees)
Orbital Period (minutes)
Azimuth
Elevation
Range (km)
Doppler Factor

Next 0 passes for location: London (51.5072 / 0.1276)

Sorry there are no passes over London.